📊 Raw Sensor Data
Showing records 47176 to 47200 of 85,081 total
| ID | Distance (ft) | Battery V | Battery A | Int Temp (°F) | Int Humid (%) | Ext Temp (°F) | Solar V | RSSI | SNR | Time Stamp |
|---|---|---|---|---|---|---|---|---|---|---|
| 37918 | 15.2 | 3.80 | -9 | 57 | 48 | 56 | 1.60 | -78 | 8 | 04/15/2025 07:45 PM |
| 37917 | 15.2 | 3.80 | 0 | 59 | 49 | 57 | 4.50 | -76 | 7 | 04/15/2025 07:30 PM |
| 37916 | 15.2 | 3.89 | 10 | 62 | 49 | 59 | 4.50 | -80 | 7 | 04/15/2025 07:15 PM |
| 37915 | 15.3 | 3.92 | 0 | 66 | 47 | 61 | 4.50 | -79 | 7 | 04/15/2025 07:00 PM |
| 37914 | 15.3 | 3.91 | 28 | 69 | 47 | 64 | 4.50 | -80 | 7 | 04/15/2025 06:45 PM |
| 37913 | 15.3 | 3.83 | 0 | 71 | 46 | 65 | 5.10 | -79 | 8 | 04/15/2025 06:30 PM |
| 37912 | 15.3 | 3.83 | 0 | 71 | 46 | 65 | 5.10 | -80 | 8 | 04/15/2025 06:15 PM |
| 37911 | 15.3 | 3.83 | 0 | 72 | 46 | 66 | 5.10 | -79 | 8 | 04/15/2025 06:00 PM |
| 37910 | 15.4 | 3.83 | 0 | 74 | 45 | 66 | 5.10 | -79 | 8 | 04/15/2025 05:45 PM |
| 37909 | 15.4 | 3.83 | 0 | 76 | 44 | 69 | 5.10 | -78 | 7 | 04/15/2025 05:30 PM |
| 37908 | 15.4 | 3.83 | 0 | 76 | 44 | 69 | 5.10 | -82 | 7 | 04/15/2025 05:15 PM |
| 37907 | 15.3 | 3.83 | 0 | 76 | 43 | 70 | 5.10 | -79 | 7 | 04/15/2025 05:00 PM |
| 37906 | 15.4 | 3.83 | 0 | 76 | 43 | 68 | 5.10 | -80 | 7 | 04/15/2025 04:45 PM |
| 37905 | 15.4 | 4.06 | 0 | 77 | 43 | 69 | 5.10 | -78 | 8 | 04/15/2025 04:30 PM |
| 37904 | 15.4 | 3.83 | 0 | 75 | 44 | 67 | 5.10 | -78 | 7 | 04/15/2025 04:15 PM |
| 37903 | 15.3 | 3.83 | 0 | 76 | 43 | 69 | 5.10 | -77 | 8 | 04/15/2025 04:00 PM |
| 37902 | 15.4 | 3.91 | 0 | 79 | 41 | 70 | 5.10 | -79 | 8 | 04/15/2025 03:45 PM |
| 37901 | -- | 3.83 | 0 | 80 | 40 | 71 | 5.10 | -80 | 7 | 04/15/2025 03:30 PM |
| 37900 | 15.4 | 4.09 | 0 | 80 | 39 | 73 | 5.10 | -78 | 7 | 04/15/2025 03:16 PM |
| 37899 | -- | 3.83 | 0 | 78 | 39 | 70 | 5.10 | -80 | 8 | 04/15/2025 03:01 PM |
| 37898 | -- | 3.83 | 0 | 77 | 40 | 70 | 5.10 | -78 | 9 | 04/15/2025 02:45 PM |
| 37897 | -- | 3.83 | 0 | 77 | 39 | 69 | 5.10 | -80 | 7 | 04/15/2025 02:30 PM |
| 37896 | -- | 3.83 | 0 | 75 | 40 | 70 | 5.10 | -80 | 7 | 04/15/2025 02:15 PM |
| 37895 | -- | 3.83 | 0 | 75 | 40 | 67 | 5.10 | -79 | 8 | 04/15/2025 02:00 PM |
| 37894 | -- | 3.83 | 0 | 75 | 39 | 69 | 5.10 | -81 | 8 | 04/15/2025 01:45 PM |